| time (UTC) | temp F | wind direction | speed knots | gust knots | rain 1hr in | rain 24hr in | rain mn in | humidity % | barometer mb |
| 20260506002003 | 76 | 189 | 7.0 | 10.4 | 0.00 | 0.00 | 0.00 | 35 | 1007.2 |
| 20260506001024 | 77 | 193 | 8.7 | 13.9 | 0.00 | 0.00 | 0.00 | 35 | 1007.1 |
| 20260506000003 | 77 | 200 | 10.4 | 18.2 | 0.00 | 0.00 | 0.00 | 34 | 1007.2 |
| 20260505235003 | 77 | 198 | 11.3 | 17.4 | 0.00 | 0.00 | 0.00 | 33 | 1007.1 |
| 20260505234003 | 78 | 201 | 12.2 | 18.2 | 0.00 | 0.00 | 0.00 | 33 | 1007.0 |
| 20260505233003 | 78 | 202 | 12.2 | 20.0 | 0.00 | 0.00 | 0.00 | 33 | 1006.9 |
| 20260505232003 | 79 | 204 | 13.9 | 22.6 | 0.00 | 0.00 | 0.00 | 32 | 1006.9 |
| 20260505231003 | 79 | 203 | 13.9 | 23.5 | 0.00 | 0.00 | 0.00 | 31 | 1006.9 |
| 20260505230003 | 80 | 200 | 14.8 | 27.8 | 0.00 | 0.00 | 0.00 | 33 | 1006.8 |
| 20260505225004 | 80 | 198 | 14.8 | 24.3 | 0.00 | 0.00 | 0.00 | 33 | 1006.7 |
| 20260505224004 | 80 | 199 | 13.0 | 20.0 | 0.00 | 0.00 | 0.00 | 33 | 1006.7 |
| 20260505223004 | 80 | 203 | 17.4 | 26.1 | 0.00 | 0.00 | 0.00 | 32 | 1006.7 |
| 20260505222004 | 81 | 202 | 15.6 | 26.9 | 0.00 | 0.00 | 0.00 | 33 | 1006.9 |
| 20260505221004 | 81 | 205 | 13.0 | 24.3 | 0.00 | 0.00 | 0.00 | 34 | 1006.9 |
| 20260505220004 | 81 | 203 | 12.2 | 20.9 | 0.00 | 0.00 | 0.00 | 35 | 1006.8 |
| 20260505215004 | 81 | 202 | 13.9 | 22.6 | 0.00 | 0.00 | 0.00 | 35 | 1006.8 |
| 20260505214004 | 81 | 200 | 15.6 | 26.1 | 0.00 | 0.00 | 0.00 | 35 | 1006.8 |
| 20260505213004 | 82 | 212 | 13.0 | 20.0 | 0.00 | 0.00 | 0.00 | 34 | 1006.8 |
| 20260505212005 | 82 | 198 | 16.5 | 27.8 | 0.00 | 0.00 | 0.00 | 33 | 1006.7 |
| 20260505211004 | 82 | 202 | 16.5 | 26.1 | 0.00 | 0.00 | 0.00 | 32 | 1006.6 |
| 20260505210004 | 82 | 201 | 16.5 | 26.9 | 0.00 | 0.00 | 0.00 | 33 | 1006.7 |
| 20260505205004 | 82 | 201 | 18.2 | 26.1 | 0.00 | 0.00 | 0.00 | 33 | 1006.8 |
| 20260505204004 | 82 | 205 | 16.5 | 26.1 | 0.00 | 0.00 | 0.00 | 33 | 1006.7 |
| 20260505203004 | 82 | 202 | 17.4 | 27.8 | 0.00 | 0.00 | 0.00 | 33 | 1006.8 |
| 20260505202004 | 82 | 199 | 17.4 | 25.2 | 0.00 | 0.00 | 0.00 | 34 | 1006.8 |
| 20260505201004 | 82 | 195 | 14.8 | 24.3 | 0.00 | 0.00 | 0.00 | 33 | 1006.9 |
| 20260505200004 | 82 | 205 | 15.6 | 30.4 | 0.00 | 0.00 | 0.00 | 36 | 1006.9 |
| 20260505195025 | 83 | 205 | 14.8 | 26.9 | 0.00 | 0.00 | 0.00 | 36 | 1007.2 |
| 20260505194004 | 83 | 220 | 13.0 | 20.9 | 0.00 | 0.00 | 0.00 | 36 | 1007.2 |
| 20260505193004 | 83 | 208 | 12.2 | 19.1 | 0.00 | 0.00 | 0.00 | 35 | 1007.2 |
| 20260505192004 | 83 | 206 | 14.8 | 24.3 | 0.00 | 0.00 | 0.00 | 35 | 1007.4 |
| 20260505191004 | 83 | 207 | 14.8 | 24.3 | 0.00 | 0.00 | 0.00 | 34 | 1007.4 |
| 20260505190005 | 83 | 206 | 15.6 | 24.3 | 0.00 | 0.00 | 0.00 | 36 | 1007.6 |
| 20260505185004 | 83 | 204 | 15.6 | 24.3 | 0.00 | 0.00 | 0.00 | 36 | 1007.8 |
| 20260505184004 | 82 | 203 | 15.6 | 23.5 | 0.00 | 0.00 | 0.00 | 37 | 1007.8 |
| 20260505183004 | 82 | 200 | 13.0 | 23.5 | 0.00 | 0.00 | 0.00 | 35 | 1007.8 |
| 20260505182004 | 82 | 200 | 14.8 | 22.6 | 0.00 | 0.00 | 0.00 | 37 | 1007.9 |
| 20260505181004 | 82 | 205 | 11.3 | 21.7 | 0.00 | 0.00 | 0.00 | 39 | 1008.2 |
| 20260505180004 | 81 | 199 | 17.4 | 24.3 | 0.00 | 0.00 | 0.00 | 37 | 1008.3 |
| 20260505175004 | 82 | 198 | 13.0 | 20.0 | 0.00 | 0.00 | 0.00 | 40 | 1008.2 |
| 20260505174004 | 81 | 203 | 12.2 | 21.7 | 0.00 | 0.00 | 0.00 | 39 | 1008.3 |
| 20260505173004 | 81 | 206 | 13.0 | 22.6 | 0.00 | 0.00 | 0.00 | 41 | 1008.4 |
| 20260505172004 | 81 | 206 | 11.3 | 21.7 | 0.00 | 0.00 | 0.00 | 41 | 1008.6 |
| 20260505171004 | 82 | 207 | 10.4 | 20.0 | 0.00 | 0.00 | 0.00 | 41 | 1008.6 |
| 20260505170004 | 81 | 206 | 14.8 | 22.6 | 0.00 | 0.00 | 0.00 | 39 | 1008.7 |
| 20260505165004 | 81 | 219 | 13.0 | 23.5 | 0.00 | 0.00 | 0.00 | 40 | 1008.9 |
| 20260505164004 | 81 | 226 | 11.3 | 20.9 | 0.00 | 0.00 | 0.00 | 42 | 1009.1 |
| 20260505163004 | 80 | 213 | 12.2 | 21.7 | 0.00 | 0.00 | 0.00 | 41 | 1009.2 |
| 20260505162004 | 81 | 230 | 10.4 | 20.0 | 0.00 | 0.00 | 0.00 | 41 | 1009.3 |
| 20260505161005 | 80 | 230 | 9.6 | 19.1 | 0.00 | 0.00 | 0.00 | 43 | 1009.4 |
| 20260505153004 | 79 | 232 | 8.7 | 17.4 | 0.00 | 0.00 | 0.00 | 45 | 1009.4 |
| 20260505152004 | 78 | 217 | 8.7 | 18.2 | 0.00 | 0.00 | 0.00 | 46 | 1009.5 |
| 20260505151004 | 78 | 225 | 10.4 | 19.1 | 0.00 | 0.00 | 0.00 | 47 | 1009.5 |
| 20260505125004 | 66 | 203 | 6.1 | 10.4 | 0.00 | 0.00 | 0.00 | 65 | 1010.6 |
| 20260505124004 | 65 | 202 | 4.3 | 7.8 | 0.00 | 0.00 | 0.00 | 66 | 1010.7 |
| 20260505123004 | 64 | 199 | 5.2 | 8.7 | 0.00 | 0.00 | 0.00 | 66 | 1010.6 |
| 20260505122004 | 63 | 221 | 2.6 | 7.8 | 0.00 | 0.00 | 0.00 | 70 | 1010.6 |
| 20260505121004 | 61 | 238 | 1.7 | 4.3 | 0.00 | 0.00 | 0.00 | 72 | 1010.5 |
| 20260505120025 | 60 | 232 | 0.9 | 3.5 | 0.00 | 0.00 | 0.00 | 73 | 1010.3 |
| 20260505115004 | 60 | 265 | 0.9 | 3.5 | 0.00 | 0.00 | 0.00 | 73 | 1010.3 |
| 20260505114005 | 59 | 277 | 0.9 | 1.7 | 0.00 | 0.00 | 0.00 | 75 | 1010.3 |
| 20260505113025 | 58 | 277 | 0.0 | 1.7 | 0.00 | 0.00 | 0.00 | 78 | 1010.1 |
| 20260505112025 | 57 | 277 | 0.0 | 1.7 | 0.00 | 0.00 | 0.00 | 80 | 1010.1 |
| 20260505111004 | 55 | 277 | 0.0 | 2.6 | 0.00 | 0.00 | 0.00 | 82 | 1010.1 |
| 20260505102025 | 55 | 160 | 0.0 | 1.7 | 0.00 | 0.00 | 0.00 | 77 | 1009.6 |
| 20260505101004 | 55 | 172 | 1.7 | 5.2 | 0.00 | 0.00 | 0.00 | 76 | 1009.4 |
| 20260505100004 | 55 | 166 | 2.6 | 3.5 | 0.00 | 0.00 | 0.00 | 79 | 1009.4 |
| 20260505095004 | 55 | 162 | 2.6 | 4.3 | 0.00 | 0.00 | 0.00 | 76 | 1009.4 |
| 20260505094004 | 55 | 162 | 1.7 | 4.3 | 0.00 | 0.00 | 0.00 | 76 | 1009.5 |
| 20260505093004 | 56 | 0 | 0.0 | 0.0 | 0.00 | 0.00 | 0.00 | 75 | 1009.5 |
| 20260505092004 | 57 | 0 | 0.0 | 0.0 | 0.00 | 0.00 | 0.00 | 73 | 1009.4 |
| 20260505091025 | 57 | 162 | 0.9 | 4.3 | 0.00 | 0.00 | 0.00 | 72 | 1009.3 |
| 20260505090025 | 57 | 171 | 3.5 | 6.1 | 0.00 | 0.00 | 0.00 | 72 | 1009.2 |
| 20260505085004 | 57 | 192 | 1.7 | 2.6 | 0.00 | 0.00 | 0.00 | 71 | 1009.2 |
| 20260505084025 | 57 | 192 | 1.7 | 2.6 | 0.00 | 0.00 | 0.00 | 71 | 1009.2 |
| 20260505083004 | 58 | 193 | 1.7 | 3.5 | 0.00 | 0.00 | 0.00 | 71 | 1009.1 |
| 20260505082004 | 58 | 195 | 0.9 | 2.6 | 0.00 | 0.00 | 0.00 | 70 | 1009.1 |
| 20260505081025 | 58 | 195 | 1.7 | 2.6 | 0.00 | 0.00 | 0.00 | 69 | 1009.0 |
| 20260505080025 | 59 | 195 | 1.7 | 2.6 | 0.00 | 0.00 | 0.00 | 69 | 1009.0 |
| 20260505075004 | 60 | 195 | 1.7 | 3.5 | 0.00 | 0.00 | 0.00 | 68 | 1009.0 |
| 20260505074004 | 60 | 183 | 2.6 | 4.3 | 0.00 | 0.00 | 0.00 | 68 | 1008.8 |
| 20260505073004 | 60 | 183 | 1.7 | 3.5 | 0.00 | 0.00 | 0.00 | 68 | 1008.7 |
| 20260505072025 | 60 | 183 | 0.0 | 2.6 | 0.00 | 0.00 | 0.00 | 67 | 1008.8 |
| 20260505071004 | 60 | 183 | 1.7 | 4.3 | 0.00 | 0.00 | 0.00 | 66 | 1008.8 |
| 20260505070004 | 61 | 183 | 1.7 | 3.5 | 0.00 | 0.00 | 0.00 | 65 | 1008.8 |
| 20260505065004 | 61 | 183 | 2.6 | 4.3 | 0.00 | 0.00 | 0.00 | 65 | 1008.8 |
| 20260505064004 | 61 | 182 | 2.6 | 5.2 | 0.00 | 0.00 | 0.00 | 65 | 1008.9 |
| 20260505063005 | 61 | 170 | 0.9 | 3.5 | 0.00 | 0.00 | 0.00 | 65 | 1009.1 |
| 20260505062005 | 62 | 166 | 1.7 | 2.6 | 0.00 | 0.00 | 0.00 | 63 | 1009.1 |
| 20260505061004 | 62 | 165 | 1.7 | 4.3 | 0.00 | 0.00 | 0.00 | 61 | 1009.1 |
| 20260505060025 | 62 | 167 | 2.6 | 5.2 | 0.00 | 0.00 | 0.00 | 60 | 1009.1 |
| 20260505055004 | 61 | 180 | 1.7 | 4.3 | 0.00 | 0.00 | 0.00 | 61 | 1009.1 |
| 20260505054025 | 61 | 194 | 1.7 | 4.3 | 0.00 | 0.00 | 0.00 | 62 | 1009.1 |
| 20260505053004 | 61 | 216 | 0.9 | 3.5 | 0.00 | 0.00 | 0.00 | 64 | 1009.2 |
| 20260505052025 | 60 | 218 | 2.6 | 6.1 | 0.00 | 0.00 | 0.00 | 64 | 1009.2 |
| 20260505051025 | 60 | 211 | 3.5 | 6.1 | 0.00 | 0.00 | 0.00 | 64 | 1009.1 |
| 20260505041004 | 61 | 185 | 2.6 | 3.5 | 0.00 | 0.00 | 0.00 | 59 | 1008.9 |
| 20260505040004 | 61 | 187 | 3.5 | 5.2 | 0.00 | 0.00 | 0.00 | 59 | 1008.8 |
| 20260505035005 | 61 | 211 | 1.7 | 4.3 | 0.00 | 0.00 | 0.00 | 58 | 1008.8 |
| 20260505034004 | 62 | 212 | 1.7 | 4.3 | 0.00 | 0.00 | 0.00 | 57 | 1008.8 |
| 20260505033025 | 62 | 205 | 2.6 | 4.3 | 0.00 | 0.00 | 0.00 | 56 | 1008.8 |
| 20260505032004 | 63 | 222 | 1.7 | 4.3 | 0.00 | 0.00 | 0.00 | 54 | 1008.8 |
| 20260505031004 | 64 | 194 | 2.6 | 4.3 | 0.00 | 0.00 | 0.00 | 53 | 1008.8 |
| 20260505030004 | 65 | 185 | 5.2 | 12.2 | 0.00 | 0.00 | 0.00 | 52 | 1008.7 |
| 20260505025004 | 65 | 171 | 6.1 | 14.8 | 0.00 | 0.00 | 0.00 | 51 | 1008.5 |
| 20260505024004 | 65 | 163 | 7.8 | 15.6 | 0.00 | 0.00 | 0.00 | 51 | 1008.4 |
| 20260505023004 | 65 | 160 | 7.8 | 14.8 | 0.00 | 0.00 | 0.00 | 51 | 1008.4 |
| 20260505022004 | 65 | 160 | 7.8 | 14.8 | 0.00 | 0.00 | 0.00 | 50 | 1008.3 |
| 20260505021004 | 65 | 164 | 8.7 | 13.9 | 0.00 | 0.00 | 0.00 | 50 | 1008.5 |
| 20260505020004 | 65 | 164 | 7.8 | 14.8 | 0.00 | 0.00 | 0.00 | 50 | 1008.5 |
| 20260505015004 | 65 | 160 | 7.8 | 13.9 | 0.00 | 0.00 | 0.00 | 50 | 1008.4 |
| 20260505014004 | 66 | 164 | 7.0 | 13.9 | 0.00 | 0.00 | 0.00 | 49 | 1008.6 |
| 20260505013004 | 66 | 167 | 5.2 | 10.4 | 0.00 | 0.00 | 0.00 | 49 | 1008.7 |
| 20260505012025 | 66 | 162 | 5.2 | 11.3 | 0.00 | 0.00 | 0.00 | 49 | 1008.6 |
| 20260505011003 | 66 | 162 | 5.2 | 10.4 | 0.00 | 0.00 | 0.00 | 48 | 1008.5 |
| 20260505010004 | 67 | 162 | 7.0 | 13.9 | 0.00 | 0.00 | 0.00 | 47 | 1008.3 |
| 20260505005004 | 67 | 163 | 7.8 | 13.9 | 0.00 | 0.00 | 0.00 | 47 | 1008.2 |
| 20260505004004 | 68 | 161 | 7.8 | 17.4 | 0.00 | 0.00 | 0.00 | 46 | 1008.1 |
| 20260505003004 | 68 | 162 | 7.8 | 14.8 | 0.00 | 0.00 | 0.00 | 46 | 1008.1 |